Regional Weather Roundup
Issued by NWS Cleveland, OH

Home | Current Version | Previous Version | Text Only | Print | Product List | Glossary Off
Versions: 1 2 3 4 5 6 7 8 9 10 11 12 13 14 15 16 17 18 19 20 21 22 23 24 25 26 27 28 29 30 31 32 33 34 35 36 37 38 39 40 41 42 43 44 45 46 47 48 49 50

047
ASUS41 KCLE 240612
RWRCLE
OHIO REGIONAL WEATHER ROUNDUP
NATIONAL WEATHER SERVICE WILMINGTON, OH
100 AM EST SAT FEB 24 2018

NOTE: "FAIR" INDICATES FEW OR NO CLOUDS BELOW 12,000 FEET WITH NO
SIGNIFICANT WEATHER AND/OR OBSTRUCTIONS TO VISIBILITY.

OHZ001>008-015>018-024>027-034-035-043-044-240700-
   NORTHWEST OHIO

CITY           SKY/WX    TMP DP  RH WIND       PRES   REMARKS
DEFIANCE       CLOUDY    41  37  86 NW10      30.23S
FINDLAY        CLOUDY    46  40  79 NW10      30.20S
TOLEDO EXPRESS CLOUDY    41  39  93 NW8       30.23R
TOLEDO EXEC    CLOUDY    43  38  82 NW7       30.23S
LIMA           CLOUDY    43  42  97 NW9       30.20R
$$

OHZ009>014-019>023-028>033-038-089-240700-
   NORTHEAST OHIO

CITY           SKY/WX    TMP DP  RH WIND       PRES   REMARKS
CLE-HOPKINS    CLOUDY    47  43  86 NW6       30.24R
CLE-LAKEFRONT  CLOUDY    42  39  89 W6        30.22R
CUY CO. ARPT   NOT AVBL
LORAIN-ELYRIA  CLOUDY    46  39  76 NW12      30.22R
ASHTABULA      CLOUDY    45  43  93 W7        30.21S
AKRON-CANTON   MOCLDY    49  44  83 NW7       30.18S
WOOSTER        CLOUDY    48  45  89 NW3       30.19F
MANSFIELD      CLOUDY    47  44  90 NW7       30.19F
YOUNGSTOWN     CLOUDY    47  45  93 NW10      30.19R
$$

OHZ042-051>053-060>062-070>072-077>081-240700-
  SOUTHWEST OHIO

CITY           SKY/WX    TMP DP  RH WIND       PRES   REMARKS
CINC-COVINGTON LGT RAIN  52  51  97 N3        30.18S
CINC-LUNKEN    CLOUDY    54  52  93 CALM      30.19S
HAMILTON       CLOUDY    52  51  97 N3        30.20S
DAYTON         CLOUDY    47  46  97 N10       30.20F
WRIGHT-PAT AFB CLOUDY    49  46  88 N9        30.18F
DAYTON GENERAL CLOUDY    50  47  89 N6        30.16F
WILMINGTON     CLOUDY    51  51 100 N5        30.18S
$$

OHZ036-037-039>041-045>050-054>059-063>069-073>076-082>088-240700-
  CENTRAL AND SOUTHEAST OHIO

CITY           SKY/WX    TMP DP  RH WIND       PRES   REMARKS
COLUMBUS       CLOUDY    50  48  93 N13       30.18F
OSU AIRPORT    CLOUDY    49  48  97 NW6       30.19F
BOLTON FIELD   CLOUDY    50  48  92 N10       30.18F
RICKENBACK AFB CLOUDY    51  51  97 N7        30.18F
NEWARK         MOCLDY    52  47  83 N8        30.19S
MARION         CLOUDY    47  43  86 CALM      30.20F
LANCASTER      CLOUDY    53  51  93 N9        30.19R
ZANESVILLE     MOCLDY    54  51  90 NW3       30.18S
NEW PHILLY     CLOUDY    53  49  86 NW5       30.19F
$$




USA.gov is the U.S. government's official web portal to all federal, state and local government web resources and services.